GSAT0223 (GALILEO 27)

Last updated on Sun Apr 12 2026 00:02:39 GMT+0000 (Coordinated Universal Time)

1 49809U 21116A 26101.41342323 -.00000071 00000+0 00000+0 0 9990 2 49809 57.1818 343.4808 0002033 278.5202 260.7765 1.70475922 27049
UTC large
Height (km)
Speed (km/s)
/
Latitude / Longitude
Inclination (degrees)
Orbital Period (minutes)
Azimuth
Elevation
Range (km)
Doppler Factor

Next 0 passes for location: London (51.5072 / 0.1276)

Sorry there are no passes over London.
GSAT0223 (GALILEO 27)